Printer-friendly version

IAU Minor Planet Center

Minor Planet Center

MPEC 2006-S59 : 2005 YY128

The following Minor Planet Electronic Circular may be linked-to from your own Web pages, but must not otherwise be redistributed electronically.


Read MPEC 2006-S58 Read MPEC 2006-S60


M.P.E.C. 2006-S59                                Issued 2006 Sept. 25, 13:41 UT

     The Minor Planet Electronic Circulars contain information on unusual
         minor planets and routine data on comets.  They are published
   on behalf of Commission 20 of the International Astronomical Union by the
          Minor Planet Center, Smithsonian Astrophysical Observatory,
                          Cambridge, MA 02138, U.S.A.

                  Supported in part by the Brinson Foundation
                  Supported in part by the TABASGO Foundation
             Prepared using the Tamkin Foundation Computer Network

                              MPC@CFA.HARVARD.EDU
          URL http://cfa-www.harvard.edu/iau/mpc.html  ISSN 1523-6714

                                  2005 YY128

                           Revision to MPEC 2006-A04

Additional Observations:
     K05YC8Y  C2006 08 24.17541 04 34 25.040+26 00 36.50         21.27R ES059J50
     K05YC8Y  C2006 08 24.22035 04 34 26.840+26 00 45.20         21.31R ES059J50
     K05YC8Y  C2006 09 25.09134 04 38 52.270+27 10 03.70         21.30R ES059J50
     K05YC8Y  C2006 09 25.11607 04 38 51.460+27 10 05.60         21.40R ES059J50
     K05YC8Y  C2006 09 25.14281 04 38 50.590+27 10 07.60         21.50R ES059J50

Observer details:
J50 La Palma-NEON.  Observers L. Glowienka, D. Sharapov.  Measurers
    J. Naranen, H. Parviainen, M. Granvik.  2.5-m Nordic Optical Telescope
    + 2048 CCD.

First and last observations above in comparison with prediction:
Residuals in seconds of arc, reference and Delta-T
060824 J50  1.7-  1.6-    060925 J50  0.1+  1.6-    MPO 98055   +0.0016 day

Orbital elements:
2005 YY128                                          PHA, Earth MOID = 0.0289 AU
Epoch 2006 Sept. 22.0 TT = JDT 2454000.5                MPC
M  71.01380              (2000.0)            P               Q
n   0.46529518     Peri.  314.48225     -0.25651491     +0.96488860
a   1.6493659      Node   300.57593     -0.86712489     -0.25555093
e   0.7320160      Incl.    3.76145     -0.42695964     -0.06069365
P   2.12           H   18.3           G   0.15           U   4
Residuals in seconds of arc
051230 691  0.1+  0.1-    060121 291  0.3+  0.1-    060204 130  0.7-  0.3-
051230 691  0.3-  0.1+    060121 448  0.8-  1.0-    060205 941  1.0+  0.3-
051230 691  0.1-  0.0     060121 448  0.2+  0.6-    060205 941  0.5+  0.3-
051231 734  0.1+  0.5-    060121 448  0.5-  0.1-    060205 941  0.6+  0.2-
051231 734  0.0   0.1-    060122 G96  0.4-  0.2-    060205 941  0.5+  0.2-
051231 734  0.0   0.4-    060122 G96  0.3-  0.2-    060205 941  0.0   0.3-
051231 734  0.5-  0.0     060122 G96  0.2+  0.2-    060206 G96  0.1-  0.2-
051231 711  0.4+  0.0     060122 G96  0.3-  0.3-    060206 G96  0.1+  0.3-
051231 711  0.1+  0.0     060123 691  0.1+  0.1-    060206 G96  0.2-  0.3-
051231 711  0.3+  0.2+    060123 691  0.1+  0.1-    060206 G96  0.1+  0.2-
060101 A50  0.9+  0.1+    060123 691  0.1+  0.2-    060207 691  0.1+  0.1-
060101 A50  0.4+  0.8+    060124 704  0.1+  0.3+    060207 691  0.2+  0.2-
060101 A50  0.4-  0.1-    060124 704  0.1+  0.5+    060207 691  0.4+  0.1-
060102 711  0.1+  0.1-    060124 704  0.0   0.3+    060211 A53  0.3-  0.3+
060102 711  0.1+  0.1+    060124 704  0.2+  0.1+    060211 A53  0.4+  0.1-
060102 711  0.4-  0.2-    060124 704  0.4+  0.4+    060211 A53  0.7+  0.6+
060104 703  0.8-  1.1+    060125 H45  0.1-  0.2-    060211 A56  0.5+  0.4+
060104 703  0.5-  0.5+    060125 H45  2.1-  0.3-    060211 A56  0.5+  0.1+
060104 703  0.2-  0.9-    060125 H45  0.1+  0.6-    060211 A56  0.7+  0.7-
060104 703  1.5+  1.4-    060125 H45  1.2-  0.9-    060219 H36  0.4-  0.6-
060104 691  0.4+  0.1+    060127 704  0.5+  0.4-    060219 H36  1.1-  0.3-
060104 691  0.2+  0.1-    060127 704  0.4-  0.2+    060219 H36  0.6+  0.2+
060104 691  0.4+  0.1-    060127 704  0.2+  0.0     060219 932  0.1+  0.2-
060105 291  0.1-  0.4+    060127 704  0.0   0.2+    060220 932  0.1+  0.0
060105 291  0.0   0.5+    060127 704  0.1-  0.5+    060220 932  0.0   0.3-
060105 291  0.2-  0.5+    060127 704  0.2-  0.2+    060221 151  0.5-  0.1-
060107 291  0.1-  0.4+    060127 704  0.3+  0.4+    060221 151  0.4-  0.1-
060107 291  0.1-  0.4+    060127 704  0.2+  0.1+    060221 151  0.4-  0.0
060107 291  0.1+  0.4+    060127 113  0.0   0.5-    060221 151  0.1+  0.1-
060107 G96  0.1-  0.2-    060127 113  0.4-  0.0     060221 151  0.1-  0.1-
060107 G96  0.1+  0.1-    060127 113  0.1-  0.0     060221 151  0.2-  0.0
060107 G96  0.2-  0.2-    060127 113  0.0   0.2-    060223 704  0.0   0.3+
060107 G96  0.5-  0.4-    060127 113  0.1+  0.6-    060223 704  0.3+  0.2-
060108 691  0.1+  0.1+    060130 A48  1.1-  0.3+    060223 704  0.1+  0.6+
060108 691  0.3+  0.0     060130 A48  1.1-  0.5+    060223 704  0.4-  0.8+
060108 691  0.1+  0.0     060130 A48  1.2-  0.7+    060223 704  0.0   0.0
060109 701  0.5-  0.4+    060130 A48  1.4-  0.8+    060226 704  0.1-  0.4+
060109 701  0.1-  0.2+    060130 A48  0.9-  0.7+    060226 704  0.2-  0.0
060109 701  0.3-  0.1+    060131 151  0.5-  0.1-    060226 704  0.6+  0.1-
060111 291  0.1-  0.2+    060131 151  0.8-  0.2-    060226 704  0.1-  1.2+
060111 291  0.2-  0.3+    060131 151  0.7-  0.2-    060228 734  0.2+  0.0
060111 291  0.1-  0.2+    060131 151  1.6-  0.3-    060228 734  0.0   0.1-
060117 448  0.6-  0.6-    060204 704  0.6+  0.6+    060228 734  0.1+  0.2+
060117 448  0.1-  0.6-    060204 704  0.1-  0.3+    060301 198  0.2-  0.4+
060117 448  0.3-  0.8-    060204 704  0.5+  0.4-    060301 198  0.2-  0.4+
060121 691  0.7+  0.8-    060204 704  0.2-  0.3+    060301 198  0.1-  0.4+
060121 691  0.1+  0.0     060204 670  0.0   0.4-    060301 198  0.0   0.3+
060121 691  0.7+  0.3-    060204 704  0.5-  0.3+    060824 J50  0.2+  0.1+
060121 691  0.4-  0.4+    060204 670  0.5+  0.2-    060824 J50  0.2-  0.1+
060121 691  0.6+  0.4-    060204 130  0.2+  0.4-    060925 J50  0.1+  0.1-
060121 691  0.0   0.1+    060204 130  0.2-  0.1-    060925 J50  0.1-  0.1-
060121 291  0.4+  0.1-    060204 130  0.3-  0.1-    060925 J50  0.1-  0.0
060121 291  0.4-  0.1+    060204 130  0.6-  0.2-

Ephemeris:
2005 YY128               a,e,i = 1.65, 0.73, 4                   q = 0.4420
Date    TT    R. A. (2000) Decl.     Delta      r     Elong.  Phase     V
2006 09 22    04 40.22   +27 06.3    1.547   2.0690   106.4    27.7    22.1
2006 10 02    04 34.26   +27 15.1    1.485   2.1401   117.5    24.5    22.0
2006 10 12    04 23.69   +27 11.8    1.433   2.2071   129.6    20.4    21.8
2006 10 22    04 08.78   +26 51.4    1.397   2.2702   142.7    15.4    21.7
2006 11 01    03 50.59   +26 10.0    1.385   2.3294   156.5     9.8    21.5
2006 11 11    03 30.99   +25 07.7    1.404   2.3849   169.9     4.2    21.3
2006 11 21    03 12.13   +23 50.5    1.456   2.4370   171.4     3.5    21.4
2006 12 01    02 55.90   +22 28.8    1.540   2.4856   158.8     8.2    21.8
2006 12 11    02 43.43   +21 13.4    1.655   2.5309   145.9    12.6    22.2

Kyle E. Smalley              (C) Copyright 2006 MPC           M.P.E.C. 2006-S59

Read MPEC 2006-S58 Read MPEC 2006-S60


Our Web policy. Index to the CBAT/MPC/ICQ pages.


Valid HTML 4.01!